Theta_e
311 310 310 311 311 311 311 311 311 312 312 312 312 312 311 312 313 314 314 314 316 316 313 311 310 312 312 310 309 309 310 311 310 308 312 316 318 316 316 312 313 313 310 309 309 309 309
311 310 310 311 311 311 311 311 311 311 312 312 311 309 308 310 311 314 314 315 315 315 314 313 312 310 309 311 308 309 308 308 307 309 310 315 313 311 311 311 313 311 310 309 309 309 309
311 311 310 310 311 311 311 311 311 311 308 307 307 306 306 308 310 311 312 312 314 312 310 309 309 308 309 309 308 306 307 307 308 309 310 308 309 312 311 310 308 309 311 311 311 309 310
311 310 310 310 311 310 311 310 310 310 308 305 305 306 306 307 310 310 309 309 311 309 309 308 308 308 309 307 307 306 307 307 307 307 307 307 308 308 310 308 309 311 312 316 311 310 310
311 310 310 310 310 311 310 310 309 310 305 304 304 305 306 307 309 308 310 309 309 310 309 309 309 309 310 308 309 307 307 307 307 307 306 306 308 309 309 313 313 311 317 313 312 310 311
311 310 310 310 310 310 310 310 310 309 303 303 303 304 306 306 307 308 308 308 307 309 309 309 309 311 309 310 309 307 307 307 309 309 310 310 310 311 310 313 313 312 313 310 312 312 312
311 310 309 309 310 310 310 310 309 306 305 304 303 303 305 306 306 308 308 308 311 310 308 310 309 310 309 308 308 309 307 309 309 310 310 308 311 315 310 308 309 310 311 312 311 311 313
311 309 309 309 309 309 309 309 309 307 305 305 304 303 304 305 306 307 307 308 307 308 309 307 308 309 308 307 310 310 308 310 310 310 309 311 311 308 307 308 310 310 311 312 310 311 311
310 309 309 309 308 307 308 306 305 306 305 305 305 305 304 304 305 307 306 306 305 304 311 308 307 308 309 309 310 310 308 308 309 310 310 312 309 307 309 310 311 311 311 311 313 312 309
311 311 308 306 307 303 305 306 303 303 304 306 306 307 306 305 306 305 306 305 306 303 317 310 310 310 309 308 310 308 308 309 309 309 309 310 308 309 311 311 310 312 312 312 313 313 318
311 311 310 305 303 303 303 303 303 303 303 304 305 307 307 305 305 306 304 305 306 303 323 309 309 308 309 310 309 310 307 309 310 309 309 310 310 311 312 312 311 313 312 313 313 314 315
310 312 312 309 306 303 303 303 304 303 303 303 304 305 308 306 306 305 305 306 302 327 316 310 309 311 311 310 310 310 310 309 308 311 311 311 309 311 311 311 311 310 311 311 311 313 320
310 310 310 310 309 307 303 302 303 303 304 303 304 305 308 307 307 306 307 303 325 318 305 311 312 311 311 312 311 310 311 311 312 321 319 312 312 311 310 313 311 311 312 322 320 322 319
309 310 309 310 310 309 307 303 303 303 305 304 303 306 307 307 307 307 303 313 317 308 310 308 311 310 312 312 312 312 311 313 311 310 313 316 315 312 310 313 314 313 312 319 316 317 317
309 309 310 309 309 310 309 305 304 303 305 305 304 308 308 307 306 305 310 318 316 311 310 312 310 312 312 311 312 313 313 313 311 310 313 314 315 312 311 313 312 314 317 311 317 313 318
308 309 309 309 309 309 310 308 305 304 305 305 306 307 306 306 306 305 316 312 311 307 310 310 312 311 313 313 313 314 313 312 312 311 309 310 316 312 312 313 313 314 312 319 318 325 325
308 308 308 308 308 309 310 310 305 305 305 307 305 312 305 306 304 312 318 313 311 309 310 311 312 312 312 313 313 313 312 312 311 311 310 312 313 315 314 315 316 316 317 315 315 316 323
307 308 308 308 308 308 309 310 307 306 304 305 305 319 304 304 316 310 313 311 308 310 309 310 311 311 312 311 313 313 313 312 311 311 312 311 312 318 315 312 311 313 315 315 319 316 315
307 307 307 308 307 307 309 310 308 306 304 305 308 310 303 303 320 313 309 310 309 310 310 311 311 310 309 311 311 311 311 310 310 311 312 311 313 312 312 312 311 315 314 313 311 312 316
306 307 307 308 307 308 309 310 310 308 304 303 306 318 311 307 304 310 310 310 311 308 310 309 310 309 310 310 309 310 309 311 310 311 310 310 310 311 308 304 313 314 314 313 314 319 313
306 306 307 308 308 308 308 309 310 309 307 303 305 307 303 313 310 309 308 309 310 310 308 308 309 310 310 310 309 310 308 309 311 311 310 311 311 309 309 308 308 308 308 312 314 314 312
306 307 307 308 308 308 308 309 310 310 308 304 308 307 304 305 304 307 306 309 309 309 309 310 310 309 309 308 307 308 308 308 309 310 312 309 311 308 309 307 306 307 307 308 308 310 311
310 309 308 308 308 309 309 308 309 310 308 304 299 300 303 304 306 307 305 306 308 308 308 307 308 309 309 310 307 307 306 306 306 309 312 311 311 310 310 306 307 308 306 307 307 307 308
309 309 310 309 308 309 309 309 308 309 308 304 301 299 307 311 306 306 305 306 307 308 309 307 307 308 306 305 304 304 305 306 306 307 307 309 310 310 312 309 313 306 302 304 307 307 307
310 310 310 309 310 309 309 309 309 309 309 306 302 301 305 312 303 305 302 305 303 303 305 306 306 305 304 306 308 307 303 305 305 304 305 305 309 310 311 309 308 305 303 305 306 308 305
309 310 310 310 310 310 310 309 309 309 309 309 304 302 301 309 311 302 304 302 305 305 303 303 303 302 303 306 307 308 307 303 306 307 303 304 306 309 307 310 310 304 303 303 304 306 302
309 309 309 309 310 310 310 310 310 309 309 309 306 304 301 307 306 301 305 307 302 303 305 303 304 305 303 307 308 307 307 303 305 307 308 307 307 310 310 310 310 308 304 303 310 309 303
307 308 309 309 309 310 310 310 310 311 310 309 307 306 303 306 307 300 300 303 302 303 309 304 306 304 305 309 308 307 306 305 304 304 308 309 309 309 309 309 312 306 304 308 307 305 304
307 307 309 309 309 309 308 309 310 310 311 311 308 306 303 303 308 303 302 303 302 304 305 302 304 302 306 307 304 304 306 304 305 307 302 307 308 309 309 311 307 304 306 304 303 304 303
Wind_Speed
18 17 16 18 18 18 19 20 22 23 24 26 27 27 30 32 34 33 24 24 24 31 33 29 22 19 11 7 4 11 10 8 11 10 15 14 16 9 9 8 7 11 6 7 7 8 7
18 18 17 18 18 18 18 19 21 22 23 24 26 27 30 34 29 31 32 27 25 30 27 26 27 22 12 9 11 9 6 9 7 9 10 13 7 9 10 6 6 7 11 8 7 6 6
19 18 18 18 19 19 18 19 20 21 21 23 25 27 25 24 27 27 25 24 26 22 20 30 29 34 14 4 11 8 6 6 9 7 7 7 10 4 6 10 6 7 9 6 10 6 4
20 19 18 18 19 19 18 18 19 20 20 22 24 26 27 21 22 25 24 23 19 19 20 21 18 19 11 13 16 14 10 15 13 16 19 13 16 12 4 11 4 4 3 5 5 8 2
20 19 19 20 19 20 19 19 18 19 19 20 22 24 27 21 21 26 24 19 17 13 14 9 15 6 8 9 10 12 10 11 12 14 12 8 7 6 4 11 7 3 5 4 3 6 5
20 20 19 20 20 21 19 19 19 18 17 18 19 20 21 25 9 7 11 21 33 17 6 9 13 7 9 7 6 8 10 9 8 6 5 7 5 6 5 5 6 9 5 3 3 3 3
19 19 20 20 20 20 21 20 19 18 17 16 17 17 17 15 18 9 4 9 6 11 22 14 8 8 3 8 7 15 9 2 4 8 6 6 8 9 6 4 5 9 8 6 2 2 4
19 19 19 19 20 21 21 20 19 17 16 16 16 16 14 13 11 16 20 7 3 2 13 11 9 6 4 3 9 18 13 6 6 7 1 6 10 5 4 5 9 7 8 4 2 1 3
19 19 20 20 21 22 22 20 18 16 16 15 16 17 14 10 4 9 13 6 4 2 6 11 4 7 5 10 8 12 9 3 9 11 10 10 5 2 5 7 9 7 3 3 2 3 1
20 19 21 22 22 24 23 22 18 15 13 13 15 17 16 7 2 4 4 3 2 1 4 14 12 8 8 3 6 6 6 3 5 8 7 8 4 4 6 6 4 4 3 3 2 3 3
21 21 21 23 25 24 25 24 20 16 14 11 10 14 14 12 2 3 3 4 1 2 5 15 7 7 8 6 3 11 8 7 7 5 1 3 4 5 5 3 4 4 2 3 1 1 2
24 22 23 25 26 26 26 26 24 18 13 10 9 10 11 4 6 3 3 2 1 1 5 5 5 8 5 9 4 4 6 8 2 9 15 5 2 3 3 5 6 9 3 2 1 1 2
20 25 24 25 28 29 29 29 28 20 13 8 6 7 9 5 2 2 2 2 2 6 2 4 4 5 5 7 6 7 5 7 4 3 3 2 3 2 1 4 3 1 1 1 2 2 3
19 21 25 26 28 30 32 33 33 22 15 6 3 1 8 8 3 2 3 0 9 1 2 0 2 2 5 6 5 5 2 3 7 4 3 2 3 1 2 4 2 3 2 2 3 2 2
18 19 21 26 28 29 32 34 35 29 21 2 1 2 5 9 3 1 1 7 3 3 3 4 1 3 3 3 2 2 5 2 3 4 2 2 3 2 4 3 3 3 1 2 1 2 3
15 18 21 23 28 30 32 34 36 32 22 4 2 2 4 7 2 0 5 5 2 1 1 1 1 1 2 2 1 2 3 1 3 0 2 3 4 2 2 2 5 1 4 2 1 3 4
14 17 19 23 26 29 32 34 37 35 23 6 1 1 6 4 3 4 5 4 3 2 0 2 1 2 2 2 3 1 2 2 3 4 0 3 1 3 2 6 6 4 3 2 1 2 3
12 15 17 22 25 27 31 34 36 36 25 6 1 2 7 3 3 3 3 3 2 3 1 2 1 1 1 2 2 1 1 4 2 2 2 1 1 3 2 2 2 3 3 6 4 4 3
9 13 16 19 23 25 27 31 34 35 25 5 2 1 5 2 3 3 2 3 0 3 3 3 2 2 1 2 2 2 2 2 4 1 0 2 2 2 2 2 2 5 8 6 1 0 8
6 9 12 16 20 24 25 28 29 31 23 5 1 3 4 4 3 3 4 3 3 1 2 1 1 1 2 2 2 3 4 2 4 2 4 2 2 5 2 3 1 4 8 12 11 5 6
5 6 8 13 17 22 24 26 26 27 20 5 4 2 1 3 5 4 2 2 3 3 1 3 2 5 3 3 3 3 2 2 2 4 4 5 4 2 8 10 9 12 14 13 19 18 10
6 6 7 9 12 17 22 24 25 25 16 8 2 2 1 2 1 1 2 0 2 1 3 2 4 3 6 3 3 3 5 4 3 4 4 2 2 1 5 4 5 10 14 17 19 21 22
7 8 9 9 10 11 16 20 22 23 13 6 3 2 2 1 1 1 1 1 1 1 2 1 2 2 5 8 6 2 3 1 0 3 7 3 3 1 5 2 10 10 8 12 10 10 15
7 8 10 10 9 9 10 14 18 19 18 6 3 2 2 1 1 1 1 2 2 2 2 1 1 2 3 1 0 1 1 1 3 6 2 4 3 2 4 7 4 4 2 4 13 9 16
12 11 8 10 10 9 8 9 12 13 14 9 5 2 1 3 2 3 3 3 2 2 3 3 3 1 1 1 3 4 2 3 2 3 5 3 5 3 3 4 10 2 3 6 7 2 7
15 13 12 11 10 9 8 8 8 10 8 8 5 4 2 1 2 1 1 1 2 2 1 2 1 1 1 1 2 3 3 0 3 3 5 4 2 6 2 4 4 2 2 2 2 4 3
16 17 16 15 14 13 12 10 9 8 6 5 2 2 3 1 2 4 3 2 2 1 2 1 2 2 0 2 3 4 3 1 3 4 5 4 5 12 8 5 9 6 5 2 3 3 1
17 19 20 18 16 15 16 16 14 12 10 6 4 3 2 2 3 6 5 5 3 2 2 2 2 1 2 4 3 3 3 2 2 3 5 7 8 5 6 5 8 8 6 5 3 6 7
17 16 16 16 16 15 15 16 17 15 13 11 5 7 7 3 3 5 11 14 8 5 3 3 2 1 3 2 2 1 3 3 3 2 2 5 6 5 10 6 2 5 8 2 3 11 9
Wind_Direction
17 12 6 1 9 13 0 2 4 10 11 12 15 20 17 19 27 43 71 82 95 107 109 109 110 115 81 67 26 346 340 133 140 146 144 152 148 138 114 109 103 96 107 71 92 96 80
16 13 11 3 5 14 3 359 4 5 6 11 17 28 34 35 40 43 61 71 94 104 96 95 102 102 47 53 323 342 111 115 129 134 128 151 126 116 92 71 55 109 106 99 70 80 66
20 14 12 7 1 11 9 357 3 4 9 16 24 30 33 29 39 47 61 69 79 93 90 86 101 102 79 37 16 56 94 109 132 129 105 92 125 102 128 105 111 117 103 100 37 8 56
20 16 12 7 2 8 9 360 3 2 4 10 17 23 37 39 54 58 64 76 98 99 97 103 113 83 80 24 52 68 73 82 96 96 100 98 97 90 69 120 96 104 123 146 25 353 1
19 16 12 9 5 5 12 5 1 2 355 2 10 19 38 67 66 69 73 69 83 99 87 106 74 83 52 11 30 27 63 86 95 85 78 79 74 77 137 128 118 54 141 126 126 27 318
20 17 14 9 5 3 9 12 2 5 360 2 6 14 28 41 86 56 67 64 59 52 352 39 32 78 23 349 329 4 54 65 76 97 78 42 71 111 118 166 165 150 133 134 150 21 316
21 19 16 11 6 1 3 9 8 8 9 1 5 13 21 34 55 37 115 91 43 50 54 76 60 89 16 323 48 27 18 11 46 55 95 29 119 99 72 38 86 124 128 139 122 50 308
21 20 17 14 9 2 1 3 8 12 14 7 4 9 14 16 44 69 75 69 42 94 73 38 59 65 43 341 47 18 21 44 41 76 111 98 80 53 80 93 103 113 131 95 111 6 306
17 17 17 15 13 6 1 2 4 11 18 15 5 6 5 358 20 46 66 74 105 134 66 35 15 30 354 26 42 10 13 44 48 62 64 81 78 58 99 92 105 62 83 110 16 323 278
17 14 16 18 15 13 6 2 2 358 3 9 7 5 5 7 60 23 41 29 54 113 78 2 3 34 357 348 58 11 12 23 59 78 62 64 36 85 86 72 350 113 57 84 35 305 274
17 13 13 19 18 14 12 7 0 355 345 346 2 3 7 30 42 39 341 336 77 260 64 336 342 327 356 58 335 25 17 41 68 54 280 69 68 65 68 32 349 98 93 72 52 51 338
16 15 14 16 18 14 12 9 2 356 348 335 342 4 12 39 59 23 331 325 320 69 56 354 333 359 41 32 36 351 39 56 101 68 71 83 51 27 73 66 70 130 120 110 123 317 259
16 16 17 17 16 14 12 13 5 359 355 349 342 359 27 46 83 10 63 294 68 60 329 360 350 356 55 33 43 27 33 45 40 94 39 78 49 68 35 111 110 137 207 264 228 209 277
6 9 14 17 17 13 11 10 9 360 354 332 335 18 28 30 31 92 126 169 66 216 203 130 308 352 57 15 50 31 81 64 48 28 125 137 165 87 17 28 16 58 319 297 276 266 332
2 3 6 12 13 12 11 9 8 3 353 342 135 119 31 359 19 85 228 53 105 183 142 168 123 65 66 39 37 75 51 64 44 18 41 129 91 59 44 33 343 104 247 18 359 134 274
360 1 0 4 8 10 10 8 7 7 2 14 133 115 25 1 53 22 71 100 72 88 56 336 109 266 128 55 64 52 38 107 135 169 291 143 121 52 100 161 71 333 123 195 166 304 281
356 356 358 360 2 6 7 7 6 7 5 12 88 128 356 21 25 56 75 82 122 170 66 3 103 115 90 72 16 76 136 145 209 154 173 159 269 128 208 204 184 162 195 182 339 252 284
350 353 355 358 0 4 7 6 5 4 9 11 3 38 353 34 49 38 59 88 137 150 153 140 126 72 139 148 137 147 313 355 132 168 169 97 161 175 169 96 321 269 238 200 243 189 226
346 353 352 355 359 1 8 7 6 4 7 5 38 323 357 46 78 78 115 100 46 153 190 174 160 194 172 168 166 167 160 86 156 180 81 165 231 182 179 165 180 230 201 211 145 340 215
325 344 352 353 357 358 8 9 7 4 6 27 45 15 22 54 25 89 141 143 150 162 163 188 129 163 164 182 255 186 195 157 165 175 94 166 265 269 317 56 83 209 204 207 209 215 242
303 331 347 355 358 358 4 8 10 6 5 27 17 78 94 358 40 61 0 143 145 195 244 200 187 231 204 184 186 229 219 165 192 180 152 193 222 220 272 266 254 261 256 217 214 226 242
308 311 333 346 354 354 360 8 11 11 12 62 27 352 118 80 312 6 14 175 226 155 191 208 237 174 201 228 252 195 177 211 227 179 201 208 257 260 273 245 236 261 256 245 247 249 258
309 317 315 319 335 347 0 5 11 19 30 76 45 68 294 2 38 300 68 101 1 352 150 309 255 231 227 253 241 242 246 307 276 194 198 214 228 285 271 296 300 269 241 214 211 221 233
295 305 315 318 319 329 352 4 7 17 33 67 66 73 341 328 289 289 198 212 213 195 260 360 199 228 19 1 159 146 112 147 208 211 211 177 194 252 285 312 246 100 177 222 201 231 216
256 264 280 302 309 314 327 347 357 5 18 44 56 74 47 304 316 274 240 240 259 231 226 234 203 272 279 352 275 279 194 187 96 49 224 212 199 249 275 281 304 159 188 171 199 167 196
258 260 262 268 278 286 299 309 325 335 358 11 51 65 98 315 221 285 293 277 298 273 239 214 138 136 335 192 208 248 255 356 174 147 32 181 261 224 189 263 253 80 137 183 243 190 153
261 264 261 262 261 262 265 265 275 285 309 334 310 50 113 244 219 171 199 228 138 276 270 275 179 170 26 201 220 228 247 323 227 190 162 151 200 217 229 270 281 253 146 166 267 41 241
261 263 258 255 255 255 251 255 255 256 261 261 264 250 190 208 259 202 202 176 156 209 251 120 222 157 126 213 219 224 229 207 256 158 180 181 168 192 198 228 269 155 112 212 40 331 306
250 254 252 249 247 248 250 254 249 242 247 245 238 228 216 220 289 247 240 239 224 205 178 189 334 181 213 184 230 243 228 200 229 250 200 229 212 189 206 224 24 201 260 279 359 305 306